Wind_Speed
10 10 10 11 12 14 15 16 17 17 17 18 18 18 19 19 19 20 20 20 20 20 18 17 18 22 24 19 17 21 25 24 22 24 30 35 36 35 35 35 31 27 25 22 17 13 9 5 9 12 16 19 21 20 20 20 19 18 15 14 15 13 10 9 8 7 6 4 2 2 3 5 6 7 8 8 9 10 9 9 9 10 10 10 9 9 10 10
10 11 12 13 15 17 17 18 18 18 18 18 18 18 18 18 19 19 19 19 20 21 19 18 17 20 24 23 19 18 22 23 20 28 35 34 33 33 34 35 34 30 25 21 16 13 11 10 11 13 16 21 22 21 21 21 20 17 15 14 13 12 11 8 6 6 5 2 1 3 4 6 6 7 7 7 7 8 7 8 8 8 8 8 8 8 9 9
15 15 16 17 18 19 19 18 18 17 17 17 17 17 17 17 18 18 18 19 20 20 20 19 17 19 23 25 22 16 20 22 20 30 35 31 32 33 33 34 35 33 29 24 19 15 15 14 13 14 17 21 22 20 19 21 19 15 12 13 12 11 9 7 6 4 2 1 2 3 4 5 6 6 6 6 6 6 6 6 6 6 5 6 7 8 8 9
19 19 19 20 20 20 19 18 17 16 16 16 16 16 17 16 17 17 18 19 19 19 20 20 19 20 22 25 25 19 18 23 27 32 32 30 32 32 33 33 33 34 32 27 21 19 17 16 15 15 17 20 22 19 18 18 15 12 10 9 11 9 5 4 3 2 2 2 2 2 3 3 3 4 5 5 5 5 5 5 4 4 4 6 7 7 8 9
21 21 21 21 20 19 18 16 16 15 15 16 15 16 16 16 17 17 18 18 19 19 19 20 20 22 23 24 26 23 19 23 29 30 28 30 31 32 32 32 32 33 32 27 23 20 18 17 15 15 16 18 20 18 16 14 10 10 9 8 9 7 3 2 2 2 2 1 1 1 2 2 3 4 5 5 5 4 4 4 4 4 5 6 7 8 9 10
21 20 20 19 18 17 16 16 15 15 15 15 15 15 15 16 17 17 17 17 18 18 18 19 21 24 24 22 23 23 20 22 26 26 27 29 30 31 31 31 32 31 29 28 26 21 19 18 14 14 15 17 18 17 13 10 8 8 11 11 9 7 3 3 4 1 1 0 1 1 2 3 4 4 5 5 5 5 4 4 4 5 6 6 8 9 10 11
20 19 18 18 17 16 15 15 15 14 14 14 14 15 15 16 16 17 17 17 18 18 19 19 19 23 23 19 16 16 19 23 24 24 26 28 29 29 29 29 29 29 27 27 28 24 21 18 15 14 14 15 15 14 10 7 7 4 8 11 8 7 4 4 4 2 2 2 2 2 3 3 4 4 5 5 5 4 3 3 3 4 4 5 7 8 9 10
18 17 16 16 15 14 14 14 13 13 13 14 14 15 16 16 16 17 18 18 18 18 19 19 18 21 22 19 13 11 16 24 24 23 24 26 27 27 27 27 26 26 26 26 27 25 22 20 19 14 11 14 12 11 9 7 9 7 6 10 7 7 6 5 5 3 3 3 3 4 4 4 5 5 6 5 4 4 3 3 4 4 5 6 8 9 10 10
16 15 15 14 14 13 13 12 13 13 13 14 15 16 16 17 17 17 19 19 19 18 19 20 20 22 22 19 13 10 16 24 22 22 23 24 24 24 23 23 24 25 25 26 25 23 22 22 22 16 12 16 13 11 9 8 12 11 10 12 8 8 7 6 5 3 3 3 4 5 6 6 6 6 6 6 5 5 5 6 7 7 8 9 10 11 12 12
14 14 13 13 12 12 12 12 12 12 13 14 14 16 16 17 18 17 18 19 19 18 18 20 22 22 19 15 11 9 20 23 20 21 21 22 22 20 21 21 23 23 24 25 24 25 24 23 22 18 16 17 14 12 10 10 15 14 12 11 8 8 6 3 3 2 2 4 5 5 7 7 8 7 6 6 6 5 6 7 8 9 10 11 12 12 13 13
13 13 12 12 11 11 11 11 12 12 13 13 14 15 17 17 17 16 17 18 20 19 17 19 20 21 17 13 12 18 22 20 19 20 20 21 20 19 20 21 21 21 23 23 23 26 25 24 20 17 18 16 13 13 14 14 16 15 11 8 9 9 7 5 3 2 3 5 5 6 7 7 7 6 6 6 6 6 7 9 10 11 11 12 12 12 13 13
12 12 11 11 11 11 11 11 12 12 13 13 14 15 17 18 17 16 17 18 20 19 18 17 18 21 16 11 17 23 20 19 19 19 20 20 19 19 20 20 20 20 21 22 23 24 24 23 18 17 18 14 12 14 17 17 16 16 10 8 12 12 10 12 10 9 8 7 8 7 6 5 5 6 6 6 6 7 9 10 12 13 13 13 12 13 13 14
11 11 10 10 10 10 11 11 12 12 13 14 15 16 17 18 18 17 17 18 19 20 18 16 17 20 15 13 22 23 20 21 22 21 21 19 20 21 20 20 19 19 20 21 22 22 22 20 15 17 18 14 15 16 17 17 15 14 10 10 13 11 11 13 13 14 14 13 13 12 8 7 7 7 7 8 8 9 10 11 12 13 14 13 13 13 14 15
10 10 10 10 10 10 10 11 11 12 13 14 15 17 18 19 19 17 17 18 18 20 19 16 17 17 17 21 24 22 23 23 21 20 18 19 20 21 20 19 18 18 18 18 19 19 19 17 13 15 18 16 18 17 17 16 13 11 10 10 11 10 11 12 12 13 14 14 15 13 11 11 10 8 9 9 9 9 10 11 13 14 15 14 13 13 14 15
9 9 9 9 9 9 10 10 11 12 13 14 16 17 18 19 19 16 16 18 18 20 20 17 17 16 16 23 24 22 22 20 17 17 17 18 19 19 18 17 16 17 16 16 17 16 15 15 12 14 17 17 17 16 16 15 12 10 8 9 9 10 10 9 10 11 12 14 14 13 12 12 10 9 10 10 9 10 11 13 15 17 17 16 14 14 14 15
8 8 8 8 8 9 10 10 11 12 13 15 16 17 17 17 17 15 16 18 17 18 19 17 16 15 15 20 22 21 20 19 19 19 18 17 17 18 17 16 15 15 15 14 14 15 14 12 11 14 16 16 15 15 13 12 11 10 8 7 8 8 8 9 10 9 11 13 14 13 13 12 11 12 12 10 10 10 12 14 16 17 18 16 14 13 14 15
7 7 7 7 8 9 10 11 12 12 13 15 16 16 16 15 16 14 13 17 18 15 18 18 14 14 16 19 19 20 21 21 20 19 18 17 17 17 17 16 14 14 14 14 14 14 11 10 11 15 16 15 13 11 9 10 10 9 7 6 7 8 9 8 8 9 10 12 13 13 12 12 12 14 12 10 10 10 12 14 16 17 18 17 13 11 12 13
7 7 7 8 8 9 10 11 12 13 14 15 15 15 16 16 16 14 13 17 17 13 14 18 16 15 18 20 20 21 22 21 20 19 18 17 15 15 16 14 14 15 13 11 13 12 9 10 11 13 15 16 15 13 11 10 10 8 8 7 7 8 9 9 10 10 11 12 12 11 11 10 10 11 10 8 8 8 10 13 15 17 16 16 13 11 11 12
7 7 8 8 9 10 11 11 12 13 13 14 14 14 15 16 15 14 14 12 12 13 16 19 21 20 20 20 21 21 21 21 21 19 18 17 16 16 15 14 14 14 10 7 10 12 8 4 5 8 16 19 18 17 14 11 10 9 8 8 8 8 8 11 13 12 14 15 12 10 10 8 7 8 7 6 6 7 9 12 15 16 15 15 15 14 13 13
7 7 8 8 9 10 11 11 13 13 13 13 14 14 13 14 13 12 11 9 12 19 21 20 22 22 20 19 20 21 21 21 20 18 17 17 18 16 15 15 13 10 10 10 12 14 8 3 9 14 18 18 17 16 13 10 10 9 8 8 9 9 9 10 10 11 16 16 11 11 10 8 8 10 9 7 7 8 9 12 14 14 15 16 16 16 16 16
7 8 9 9 10 10 11 12 12 12 13 13 13 13 13 13 13 11 9 13 19 21 20 21 22 21 20 18 17 20 21 19 18 18 17 18 17 14 14 15 13 11 15 17 13 9 6 11 20 19 16 16 16 15 12 10 10 9 8 8 10 11 11 7 7 13 16 12 9 9 9 9 10 11 11 10 10 10 10 12 12 13 15 16 18 19 19 18
8 9 9 10 10 11 11 11 12 12 12 12 12 13 13 12 13 11 9 14 19 19 19 21 21 20 20 18 16 18 18 15 16 18 18 18 17 15 15 15 16 16 17 18 13 6 10 20 22 17 16 15 13 13 11 10 10 8 7 9 10 11 11 7 8 13 12 9 9 8 10 12 12 11 10 10 12 11 9 9 10 13 16 17 19 20 20 20
9 10 10 11 11 11 11 11 11 11 10 11 12 11 12 11 12 11 8 12 17 18 18 18 19 19 19 19 17 16 18 18 19 19 19 19 18 17 16 15 18 16 14 17 15 12 18 23 19 17 17 13 11 10 9 9 9 8 8 10 9 10 12 9 9 11 10 9 8 9 10 12 10 9 8 9 9 8 6 7 10 14 17 19 20 21 21 21
10 10 11 11 11 11 10 10 10 10 10 11 11 10 11 10 11 10 6 10 17 18 17 16 17 19 19 20 18 15 19 21 21 21 21 20 20 19 17 17 18 17 16 18 17 18 22 21 18 17 16 13 13 11 9 11 11 11 12 12 11 12 13 12 11 9 7 8 7 5 5 12 10 7 7 8 6 5 5 9 12 15 17 19 20 21 21 20
9 10 10 10 10 10 10 10 10 10 10 10 10 9 11 10 10 9 4 7 16 18 17 16 16 19 19 20 20 16 16 20 21 22 22 21 20 20 19 18 19 19 19 15 14 19 23 20 17 15 15 15 14 14 14 15 15 14 15 14 14 15 14 11 10 8 5 7 8 3 3 10 11 8 9 8 5 6 8 11 13 15 17 19 21 21 19 17
9 9 10 9 10 10 10 10 10 10 10 10 10 10 11 10 10 8 3 4 13 18 18 17 16 19 20 19 21 17 14 20 23 22 20 20 20 20 19 18 18 19 17 12 12 18 22 18 14 14 16 15 14 16 17 17 15 16 16 16 16 15 12 9 9 8 5 6 8 8 5 5 7 8 8 7 5 6 8 10 11 14 17 20 23 25 22 17
9 9 9 9 9 10 10 10 10 10 10 10 10 11 11 10 9 7 2 2 10 16 18 18 17 18 20 20 21 19 16 20 20 18 19 19 20 20 17 16 16 18 17 13 12 15 17 14 12 14 15 15 16 18 19 18 16 16 16 16 16 14 10 7 8 8 6 6 8 10 7 4 5 5 6 4 3 4 7 9 11 14 17 21 25 28 27 22
8 9 9 9 10 10 10 10 10 10 10 10 11 12 11 10 9 7 3 2 7 13 16 17 16 17 19 20 21 20 18 18 18 18 20 20 19 18 16 15 16 17 16 13 12 13 14 14 13 15 15 16 19 19 19 16 15 15 16 18 16 11 7 5 6 6 4 6 7 9 9 4 2 3 4 3 4 7 11 12 14 17 20 24 27 29 27 23
7 8 8 8 9 9 9 9 10 10 10 11 11 12 11 10 9 5 4 4 5 10 13 14 15 16 18 19 19 19 19 19 20 21 20 19 19 18 17 16 16 16 15 13 12 12 13 15 14 15 17 18 18 18 18 16 16 18 18 19 14 6 4 3 4 4 4 5 5 7 10 7 1 5 5 6 9 11 12 13 15 19 23 27 30 30 25 20
6 7 7 8 8 8 8 9 10 10 11 11 11 12 10 9 9 4 3 3 5 8 11 12 14 15 15 15 16 17 18 19 20 20 18 18 19 18 17 16 13 14 17 16 13 12 13 14 13 16 19 18 17 17 16 16 18 19 18 17 10 3 2 3 5 4 3 3 3 5 13 10 2 5 6 7 9 11 11 13 16 19 23 28 30 30 25 20
6 7 7 8 8 8 9 9 10 10 10 10 10 11 9 8 9 5 3 3 4 7 10 11 12 14 13 14 16 17 17 17 18 17 15 15 15 13 14 18 15 13 16 17 15 12 11 13 15 17 19 18 16 16 14 15 18 18 16 12 5 1 0 2 6 5 3 1 1 9 16 8 1 3 5 7 9 10 12 14 18 22 25 28 31 30 25 20
6 7 7 8 8 8 9 9 9 9 9 9 9 10 8 5 7 7 4 3 4 5 8 9 11 13 13 14 17 17 18 18 19 20 19 19 20 20 21 24 22 16 15 18 17 10 6 11 18 19 19 18 16 16 14 14 18 19 18 15 7 2 2 1 3 3 0 2 5 13 12 2 2 7 7 9 10 11 13 16 20 24 26 30 32 29 24 22
6 6 6 7 7 7 8 8 8 8 8 9 8 9 7 4 5 6 4 4 5 5 7 9 10 12 13 14 16 17 18 19 20 21 21 20 21 23 22 22 22 19 16 15 16 12 6 9 18 19 18 18 17 17 16 15 21 24 23 18 11 4 3 2 3 2 2 5 9 10 5 2 7 9 7 10 12 13 15 18 22 25 28 33 33 28 26 24
5 6 6 6 6 7 7 7 8 8 9 9 8 8 6 3 3 4 4 5 6 6 7 8 10 11 12 14 15 16 16 18 19 19 18 16 16 21 21 21 21 20 17 14 16 17 9 6 16 21 19 17 17 18 17 15 19 24 22 17 12 9 5 1 3 1 4 10 9 5 3 5 8 8 9 12 13 14 16 20 23 26 30 34 32 29 28 26
5 6 6 6 6 6 7 8 8 8 9 9 8 7 5 4 3 3 3 4 5 6 6 8 9 9 11 12 14 15 15 16 17 17 17 17 18 22 22 21 21 21 19 16 15 16 9 5 13 20 18 16 16 16 16 16 17 20 20 15 11 9 6 3 4 3 6 9 6 4 6 9 9 10 11 12 13 14 17 21 23 26 31 33 30 29 29 29
6 6 7 7 7 7 8 8 9 9 9 8 8 6 5 4 3 3 3 3 4 5 6 6 7 8 9 11 13 14 14 15 16 16 17 17 18 20 21 21 21 21 20 18 16 15 10 5 9 17 18 14 14 14 15 16 16 18 21 18 10 5 7 7 3 4 5 3 3 6 9 9 9 10 11 13 14 15 18 22 23 28 32 32 30 30 30 30
7 8 8 8 8 9 9 9 9 9 8 8 7 5 4 3 3 3 2 3 4 4 5 6 6 7 9 10 11 13 13 13 15 15 16 16 15 17 20 19 20 21 19 18 17 16 13 6 7 16 17 13 12 12 12 14 17 18 19 18 11 4 7 9 4 3 4 0 3 7 10 10 8 6 10 15 15 16 19 21 24 28 30 29 29 30 29 28
8 9 9 9 10 10 10 10 9 9 8 8 5 4 3 3 3 2 2 3 3 4 5 5 6 6 8 9 10 11 12 12 14 14 14 15 13 15 18 19 19 20 19 18 17 16 15 8 7 15 16 11 9 9 10 12 16 19 18 17 14 5 6 10 5 2 2 2 4 6 7 7 5 5 11 14 15 17 18 20 25 28 28 28 29 29 28 27
9 10 10 10 11 11 11 10 10 9 8 6 4 3 3 3 2 2 2 3 3 4 4 5 5 6 7 9 10 11 11 12 13 14 14 14 13 13 17 18 18 19 18 18 17 17 15 8 7 14 14 10 7 5 8 11 13 17 17 17 16 8 7 9 3 1 1 2 3 4 5 3 3 6 12 13 14 16 18 22 27 28 28 28 29 28 28 27
10 11 11 11 12 12 11 10 10 9 7 5 4 3 2 2 2 2 2 3 3 4 4 4 5 5 6 8 9 10 12 11 13 14 14 14 14 13 16 18 18 18 18 17 17 18 17 10 10 15 13 9 6 5 8 11 12 16 19 20 17 12 10 7 3 2 2 2 0 1 5 5 2 7 15 16 16 18 21 25 28 28 28 28 27 27 27 26
11 12 12 12 13 12 11 10 9 7 6 5 4 3 2 2 2 2 3 3 3 4 4 4 4 5 6 8 8 10 11 11 11 13 13 14 14 14 15 17 18 18 17 17 18 19 16 11 14 18 13 8 7 5 7 10 13 17 20 20 17 14 11 6 2 3 3 4 3 2 6 8 4 8 18 19 19 21 24 26 28 28 27 26 25 25 25 25
13 13 13 13 12 11 10 9 7 6 5 5 4 2 2 1 2 2 2 3 3 4 4 4 4 5 5 7 8 9 10 10 9 12 13 13 14 14 15 17 18 18 17 16 18 20 16 12 16 18 12 7 5 4 7 10 13 17 18 18 16 13 11 4 2 5 7 8 7 6 6 6 4 13 21 21 20 22 23 26 28 27 26 25 25 25 25 26
14 13 13 12 11 10 9 8 7 6 6 4 3 1 1 1 2 2 2 3 3 4 4 3 4 4 5 6 7 8 9 8 8 11 12 12 13 14 15 17 18 17 16 16 18 20 14 11 16 16 10 6 3 3 8 12 15 18 18 17 15 13 12 9 8 10 9 9 8 5 4 6 9 18 22 21 21 21 22 25 27 26 26 25 26 26 26 27
14 13 11 10 9 8 9 8 7 6 5 3 1 1 1 2 2 2 3 3 4 4 3 3 4 4 5 6 6 8 8 7 7 9 11 12 13 13 14 16 17 16 15 16 18 18 13 12 15 12 7 6 4 4 9 14 17 19 19 18 16 14 13 12 11 10 8 8 7 6 6 10 17 21 21 20 21 21 23 25 25 26 26 27 27 27 26 27
14 12 9 8 8 9 8 7 5 4 3 2 3 3 3 3 3 3 3 4 4 4 4 4 4 4 4 5 6 7 7 7 7 8 10 12 12 13 14 15 16 15 13 15 18 17 15 14 14 9 5 4 5 8 12 17 19 20 20 19 17 15 14 12 10 9 8 7 9 9 11 18 19 16 16 17 19 23 26 26 26 25 26 27 28 28 27 29
12 10 8 8 9 9 7 5 5 5 4 4 4 4 4 4 3 3 4 4 4 4 5 4 4 4 4 5 6 6 7 8 8 8 10 11 12 13 13 15 16 14 12 15 17 15 15 16 14 12 9 8 11 12 14 17 19 20 20 18 16 14 13 12 11 11 9 10 14 13 16 24 20 13 13 16 20 25 28 28 28 26 25 27 28 29 30 31
10 9 8 9 9 7 7 7 7 6 5 5 5 5 4 4 4 4 4 4 5 5 5 5 4 4 5 5 6 6 6 7 8 9 10 11 12 13 13 15 15 12 13 16 16 14 15 16 15 15 15 15 15 12 12 16 20 20 18 15 13 12 13 14 14 13 11 12 15 16 20 26 23 16 16 20 23 27 30 30 29 27 26 28 29 30 31 31
9 9 10 10 9 8 9 9 8 7 6 5 5 5 5 5 4 4 4 5 5 6 6 6 5 5 6 6 6 6 7 8 9 10 10 12 13 13 14 15 13 12 15 17 15 13 13 15 16 17 17 16 14 12 12 16 19 18 14 12 12 12 14 15 14 14 15 17 17 20 24 26 22 18 19 22 24 28 31 32 31 28 27 29 30 31 32 32
10 11 11 10 8 8 9 9 7 7 6 5 5 5 5 5 5 5 5 6 6 7 7 7 7 7 6 6 7 7 8 9 10 11 12 13 14 14 15 14 12 14 17 16 14 12 12 14 17 19 19 15 12 13 15 18 19 15 10 11 13 14 14 14 13 13 16 19 20 22 25 23 19 19 23 23 25 30 32 32 30 27 27 29 30 32 33 33
13 13 11 10 9 8 8 7 7 7 6 6 5 5 5 5 5 5 6 6 7 7 8 8 7 7 7 7 7 8 9 10 11 12 13 14 15 15 15 14 14 16 17 16 13 12 13 15 15 20 21 15 12 15 17 19 19 12 8 11 13 15 14 12 11 12 14 18 20 21 25 23 18 20 24 25 27 31 32 31 28 26 27 29 31 32 33 34
14 13 11 10 8 7 6 6 7 7 6 6 5 4 5 6 6 6 7 8 8 8 9 9 8 8 8 8 8 9 10 11 12 13 14 15 16 15 15 15 15 16 16 14 12 12 14 14 16 20 22 18 16 17 18 18 16 9 8 10 11 12 12 10 11 11 13 18 20 21 24 24 22 22 25 26 28 30 29 28 27 26 27 30 31 33 34 34
13 12 10 9 8 6 6 6 6 6 6 6 4 5 6 6 7 7 8 9 9 9 9 9 9 9 9 8 9 10 10 11 13 14 15 16 17 16 15 15 15 15 14 12 11 13 13 14 17 18 20 22 20 19 21 18 9 5 7 9 10 11 10 10 11 12 13 17 20 21 22 24 24 25 27 29 29 28 28 27 27 28 30 30 32 33 34 35
Wind_Direction
82 81 80 81 82 82 84 89 89 82 74 67 62 59 54 48 44 41 39 37 37 37 35 35 35 39 40 36 34 29 30 27 16 24 33 32 31 29 29 28 27 26 24 17 13 27 41 93 135 148 152 158 166 170 168 168 176 180 177 179 171 157 156 155 140 141 145 146 181 224 267 270 266 265 268 270 268 270 269 269 268 265 263 261 258 252 247 248
89 91 90 90 88 88 90 90 85 78 72 68 63 59 52 47 43 39 38 38 38 39 37 36 35 41 43 39 35 31 32 27 18 32 38 35 32 31 30 30 31 31 34 27 20 40 62 95 120 133 145 154 159 165 164 165 174 177 178 175 162 157 161 156 140 136 140 137 259 289 298 296 291 285 282 280 276 279 279 275 275 274 271 263 260 254 250 253
92 93 93 92 91 91 92 88 83 78 73 68 61 55 49 44 41 39 38 38 38 38 37 37 38 41 44 41 33 27 31 26 24 37 39 35 33 32 31 31 32 32 36 35 30 44 65 90 110 127 144 154 154 158 162 164 169 171 180 175 155 154 162 149 127 112 104 74 343 320 310 303 300 298 294 290 285 288 287 283 286 289 280 268 264 256 252 256
90 92 92 93 93 93 92 89 84 78 71 65 58 52 48 43 40 39 37 37 36 36 35 35 38 42 45 43 34 29 31 27 33 39 37 36 35 32 32 32 32 33 36 36 35 44 61 84 102 123 144 154 152 151 156 161 165 164 167 165 146 137 145 139 117 82 43 12 353 334 317 310 301 299 292 289 287 287 290 285 283 279 269 267 262 252 249 252
91 93 95 95 95 94 91 88 82 75 68 62 56 51 47 43 40 37 35 35 35 35 35 33 36 41 41 41 35 31 32 31 37 39 37 38 37 34 33 33 33 34 36 38 42 48 60 76 94 119 141 152 152 150 147 148 157 158 138 123 125 112 88 83 75 42 39 17 336 290 281 289 286 290 284 288 290 282 279 273 266 257 251 256 253 252 258 262
94 95 95 95 94 91 87 82 76 70 64 58 54 51 46 43 39 37 36 34 36 35 35 33 35 41 38 36 32 24 28 40 41 38 38 39 39 37 35 35 36 36 35 38 44 49 58 68 82 109 134 143 147 147 133 131 147 151 127 111 111 103 90 97 91 81 71 336 267 263 263 272 278 284 290 300 303 292 283 270 261 258 254 254 257 264 271 274
94 95 94 93 91 87 83 78 72 67 62 57 53 49 45 43 38 36 35 33 36 34 35 34 34 42 39 33 25 6 22 46 45 39 40 39 40 39 37 37 39 40 38 38 44 48 56 67 78 92 121 130 139 141 117 112 116 119 127 115 108 101 91 91 81 56 35 337 308 295 284 289 291 297 302 306 306 303 304 293 284 274 269 270 273 277 280 282
95 95 94 92 89 85 80 74 69 64 59 53 48 45 42 39 36 35 33 32 32 30 32 30 30 41 38 29 14 342 17 45 46 40 41 41 41 39 38 38 40 44 43 42 45 48 52 63 73 79 106 111 119 127 106 102 89 73 107 97 86 91 77 75 66 33 33 359 337 327 315 316 314 314 318 325 332 339 355 346 334 317 303 296 292 293 291 292
96 95 93 90 86 80 75 70 64 58 52 48 44 41 37 35 34 32 33 32 30 29 29 27 27 33 30 17 349 329 29 45 45 41 41 43 42 40 40 39 41 46 48 49 50 51 51 56 66 72 88 97 101 105 106 112 87 74 88 84 79 84 74 78 73 48 41 2 342 341 334 331 327 328 331 339 350 352 350 340 334 325 315 310 306 305 303 302
95 94 91 87 82 76 71 64 58 52 47 43 39 37 33 32 31 30 32 31 30 29 28 27 27 32 25 359 335 12 43 44 42 40 41 43 42 42 43 42 44 47 50 52 54 54 53 53 60 64 70 84 93 99 106 107 90 79 80 86 89 79 67 70 59 29 11 348 341 338 335 334 329 331 335 338 342 338 333 329 327 322 316 312 310 309 308 308
93 90 88 83 78 72 65 59 53 46 42 38 34 31 29 29 28 29 31 31 31 30 30 28 28 36 24 349 11 47 48 43 42 40 41 43 41 42 44 45 45 48 52 53 55 57 53 52 55 59 66 76 87 97 96 92 90 84 77 83 82 63 49 48 31 358 341 332 331 327 327 331 328 326 328 334 338 336 335 336 335 331 324 316 312 310 310 309
91 88 84 79 73 66 59 52 47 42 38 33 30 27 25 26 26 28 30 31 31 30 33 29 29 37 20 357 38 48 45 41 42 40 39 40 38 41 44 46 45 49 55 54 58 60 58 55 51 60 74 82 85 89 87 85 88 88 83 72 64 54 47 49 43 34 21 6 360 353 344 338 329 318 315 317 320 325 331 335 338 337 332 324 318 315 314 313
88 84 78 72 64 58 50 44 41 37 34 30 27 24 23 24 24 28 30 30 30 29 32 29 31 35 20 28 47 46 42 39 37 35 34 34 35 38 40 43 44 47 54 55 58 62 63 61 52 63 77 80 82 85 87 88 88 88 88 69 62 57 51 48 43 36 26 18 14 13 12 2 347 327 316 313 312 318 323 331 338 340 337 329 321 316 314 315
81 76 69 62 55 50 44 39 35 31 29 25 23 22 22 23 23 28 30 31 31 30 31 29 34 34 25 39 47 42 41 38 35 33 30 33 34 35 36 39 42 45 51 56 59 63 68 69 60 68 77 76 79 84 88 90 87 85 82 70 66 60 53 47 41 31 18 12 9 8 9 3 355 338 328 323 319 322 326 335 340 341 339 333 325 317 315 317
73 67 60 53 47 42 38 34 29 26 24 22 21 21 21 22 22 28 33 32 32 31 30 30 36 34 29 40 44 40 41 40 38 35 34 36 35 35 36 37 40 43 47 52 59 62 66 70 64 66 74 74 76 77 79 82 81 79 74 70 64 58 54 42 33 23 9 4 359 356 355 353 347 334 328 323 323 329 335 341 342 343 344 339 331 323 321 322
63 56 51 46 40 34 31 27 24 21 19 19 21 21 23 22 21 29 32 31 34 33 31 33 37 35 33 40 41 40 41 37 35 36 36 37 36 35 35 35 36 41 44 46 57 58 57 66 61 60 65 65 68 70 69 72 73 69 66 67 56 49 45 29 19 8 360 356 349 344 339 339 334 325 323 320 324 334 339 344 347 352 354 349 340 331 329 328
55 48 42 37 32 27 23 20 18 16 16 17 18 19 23 24 25 30 33 33 33 32 34 37 40 41 41 43 41 40 39 34 33 33 35 36 34 34 34 32 30 35 39 39 49 54 51 54 55 60 63 60 61 64 65 65 63 60 57 60 49 31 20 10 359 350 350 349 342 335 332 332 322 313 314 317 324 334 341 349 356 357 355 354 350 341 336 331
44 37 33 28 23 19 16 14 13 12 14 15 16 16 18 21 24 27 31 33 31 31 39 38 41 45 42 40 39 38 36 32 32 32 34 35 34 38 37 31 30 31 29 30 43 50 49 56 70 76 70 63 57 53 60 59 50 45 41 47 40 15 4 350 339 340 347 350 346 340 339 334 313 305 309 313 321 337 350 358 3 2 360 2 2 356 346 337
30 25 21 18 16 13 11 10 9 10 11 13 14 14 16 19 20 23 28 25 22 35 42 35 37 41 38 35 33 33 33 31 30 29 32 32 31 37 35 31 33 28 23 31 43 45 40 64 104 69 50 47 44 43 50 50 39 29 20 20 10 360 355 336 329 335 347 355 2 9 5 347 330 334 337 331 342 360 10 13 13 11 12 15 14 10 1 351
17 15 12 11 10 8 7 6 6 7 9 11 13 13 16 18 18 26 31 20 24 37 39 34 34 36 35 34 31 29 29 28 27 28 32 33 31 33 30 30 29 21 30 44 48 46 33 54 64 48 41 40 37 37 39 37 32 17 0 354 344 345 344 327 327 341 344 353 16 35 33 15 12 23 30 38 34 28 28 25 19 11 12 15 14 12 8 1
6 5 4 4 3 4 5 5 5 4 6 9 11 12 13 16 18 26 33 31 34 37 36 34 34 32 33 34 31 29 27 22 22 27 32 32 31 33 32 28 24 26 38 42 49 49 30 49 55 50 44 38 33 33 32 27 18 5 357 349 338 344 351 352 358 348 342 358 29 46 48 35 37 47 53 62 61 49 40 31 16 4 8 13 11 9 7 2
357 357 358 359 359 2 3 3 5 5 3 6 10 11 10 14 18 25 39 38 37 37 34 34 31 28 29 28 29 31 27 21 23 29 33 32 31 33 32 25 25 33 42 45 49 48 43 51 54 50 44 39 32 28 21 11 4 1 358 349 342 350 1 11 4 349 349 16 44 67 61 45 48 58 66 77 76 68 54 31 7 4 11 13 10 5 1 358
353 354 355 357 358 0 2 4 6 4 4 8 12 10 8 12 16 25 50 45 39 39 36 35 31 28 27 25 24 25 23 22 23 27 31 31 31 33 32 27 30 33 42 48 44 41 49 52 53 49 43 39 34 25 8 360 4 6 359 356 360 2 358 359 6 3 4 22 55 92 75 60 67 70 78 92 90 84 63 22 9 12 15 12 7 3 359 355
355 356 358 0 1 4 6 8 10 10 12 13 12 11 10 13 14 23 63 53 40 38 35 35 31 28 27 25 23 21 21 21 21 25 27 27 28 30 29 28 31 31 37 44 38 42 53 52 47 42 34 30 27 17 11 12 12 11 9 8 5 356 348 350 9 18 17 33 66 129 78 52 65 81 83 85 90 80 42 23 20 17 13 8 5 2 358 352
5 6 8 11 11 12 14 17 19 19 18 15 14 14 12 13 12 21 85 63 36 33 30 30 28 26 27 25 23 22 20 19 21 24 25 24 25 26 26 25 27 29 35 42 37 42 51 49 43 35 24 23 19 16 21 19 16 14 11 3 353 347 345 347 4 20 43 53 61 87 36 40 54 76 81 71 62 46 32 25 23 18 12 8 5 3 359 351
16 16 17 20 20 20 21 23 23 21 20 18 17 15 13 12 11 17 101 78 31 25 24 24 25 24 23 24 23 21 18 18 22 25 23 23 26 25 24 23 26 30 32 36 36 42 46 43 38 28 19 16 16 22 24 21 20 14 4 357 349 344 344 347 360 18 55 69 55 43 42 74 68 66 77 68 46 40 34 24 15 10 7 4 3 2 1 352
22 22 22 24 24 25 25 24 24 22 20 19 17 16 13 13 12 13 94 88 16 14 18 20 21 20 20 23 22 21 23 18 19 25 25 26 27 24 22 22 26 31 31 32 42 50 48 41 34 23 13 8 14 23 23 22 21 9 359 353 348 342 342 351 1 16 59 81 62 39 42 101 95 76 97 90 43 11 359 354 353 354 356 356 356 358 359 353
27 27 25 25 25 26 23 22 21 19 19 18 16 15 13 14 13 15 75 85 8 8 13 16 18 17 18 20 18 21 24 18 18 26 27 27 26 23 24 27 31 33 33 37 52 61 47 37 32 20 11 11 17 19 18 22 19 8 358 349 343 338 338 353 6 17 64 80 61 42 37 56 137 151 151 209 266 303 322 334 345 349 351 354 356 357 356 350
31 31 28 26 26 23 18 17 17 17 17 16 13 11 12 14 14 26 85 75 12 8 13 13 15 15 17 18 16 17 19 16 21 26 23 23 22 20 23 30 35 35 35 39 54 66 48 35 30 20 17 18 18 17 16 18 15 8 358 345 340 342 357 24 20 29 82 70 56 44 26 18 234 210 223 255 274 299 320 335 344 347 350 354 357 356 352 342
31 28 26 24 22 20 18 16 16 16 15 15 12 8 9 13 15 35 93 42 9 9 12 13 16 15 15 15 15 18 19 19 24 24 21 22 18 15 21 31 41 42 39 40 49 61 50 36 30 25 23 20 19 19 17 18 14 6 357 346 341 350 45 58 29 39 80 41 65 31 358 352 295 229 242 268 286 300 318 331 337 342 347 350 350 348 344 335
24 21 18 14 14 17 17 16 16 16 14 13 10 7 8 14 21 46 93 26 7 7 9 12 15 14 12 11 14 18 18 20 27 26 28 30 19 13 26 33 39 41 37 37 40 50 48 34 28 25 23 23 22 18 17 20 14 7 5 6 8 349 32 49 20 35 64 6 7 345 340 340 232 258 275 289 293 299 313 324 333 339 342 343 343 342 338 330
12 13 13 10 11 13 14 16 16 16 14 9 7 7 9 17 29 54 80 27 359 2 9 13 13 12 12 12 14 15 15 17 21 21 24 23 15 15 23 26 29 29 26 28 32 38 47 34 29 23 19 21 21 17 17 18 11 10 20 32 48 39 12 14 345 6 115 247 332 337 336 341 290 306 301 295 294 302 313 324 334 337 339 341 342 340 336 332
5 5 9 9 9 11 14 14 11 12 10 5 5 7 12 30 42 51 59 26 10 11 14 12 11 12 11 12 13 13 14 16 18 20 23 20 14 19 24 23 26 28 26 27 28 30 40 31 25 22 18 17 17 19 21 14 11 17 26 35 47 58 38 350 300 326 282 291 332 342 333 296 318 320 306 294 298 305 314 327 333 335 338 341 341 340 337 334
2 3 7 8 7 8 10 6 3 6 2 1 4 7 19 61 58 41 37 26 21 19 15 11 10 11 10 12 14 13 14 16 17 19 20 17 17 22 25 24 25 27 28 29 27 28 35 23 16 18 17 13 15 23 24 16 15 20 26 35 45 59 66 334 296 312 287 299 319 350 335 310 322 325 307 300 304 310 319 329 332 335 339 339 339 338 335 333
359 360 359 360 360 358 358 356 355 356 355 355 360 9 36 72 56 34 30 26 22 17 14 11 8 9 10 11 12 13 14 15 15 16 16 16 19 21 20 19 21 23 26 29 27 25 29 24 14 14 13 11 13 21 22 20 18 19 24 30 35 46 45 342 296 277 289 298 306 325 316 311 319 319 308 308 314 316 323 328 330 334 335 335 336 335 333 331
348 347 347 348 347 345 347 348 346 347 350 351 355 13 47 65 45 37 39 32 21 13 11 10 7 8 9 10 11 13 12 12 13 14 15 16 19 20 16 15 17 19 23 27 25 22 22 21 12 10 10 11 11 14 18 20 18 18 22 23 19 19 14 2 316 289 310 300 290 315 314 313 323 323 316 320 323 322 324 327 329 330 331 333 334 332 330 328
339 337 338 338 337 336 338 339 338 339 342 345 353 18 46 53 43 44 46 30 18 13 10 7 6 7 7 7 10 11 10 11 12 11 15 17 17 15 14 13 15 16 19 22 21 19 15 11 5 5 7 10 7 7 13 15 14 20 24 18 9 359 4 5 339 314 4 355 277 305 307 311 323 331 330 331 329 324 323 326 326 326 328 331 330 329 328 326
333 332 331 331 330 330 331 332 332 334 338 342 354 24 44 44 46 47 40 25 18 13 6 4 5 6 4 3 7 9 8 10 10 10 16 18 15 11 9 11 13 12 14 17 16 15 13 11 6 3 3 6 5 3 6 7 10 17 20 14 13 19 352 356 351 325 4 312 297 305 304 315 333 342 341 339 331 323 322 323 322 324 329 331 330 330 328 326
330 327 326 326 325 323 325 325 327 331 333 340 356 18 32 39 52 53 38 19 13 10 5 6 7 5 1 1 3 4 5 7 8 11 15 16 14 9 6 7 10 9 10 11 12 10 9 10 3 1 359 357 358 0 4 6 5 5 6 8 17 20 344 345 353 232 271 269 308 315 305 334 21 355 350 345 331 324 323 321 322 327 334 332 329 328 326 326
324 322 321 322 321 319 321 323 326 330 331 340 354 7 22 45 62 50 28 13 7 7 4 3 5 3 359 0 0 0 3 5 6 9 13 13 10 7 5 5 6 7 6 7 8 5 4 3 356 359 0 354 356 0 360 0 353 353 358 1 7 8 352 340 313 283 250 233 307 358 300 302 313 346 350 347 338 333 329 324 325 331 332 328 325 324 323 326
319 318 318 320 319 319 321 323 327 330 334 339 345 358 22 61 58 34 18 9 0 360 3 1 0 358 355 357 358 359 1 3 4 7 8 9 8 4 1 0 2 5 4 3 5 1 1 1 354 357 1 353 350 349 348 352 347 348 353 354 355 357 355 351 298 268 240 259 262 211 290 301 300 338 345 348 344 337 329 325 328 330 328 324 323 322 323 326
315 316 317 319 319 320 323 326 330 332 333 334 337 1 39 58 34 13 359 355 350 355 0 357 354 354 352 355 355 356 358 359 0 2 2 3 3 0 357 356 358 1 2 2 1 358 1 2 353 355 358 349 342 335 337 344 343 342 345 344 345 345 341 343 269 280 281 275 255 229 271 295 318 333 340 346 341 333 329 327 328 328 327 327 325 326 328 329
313 314 316 318 319 323 326 326 327 326 325 327 336 12 32 15 355 341 337 339 339 346 351 344 345 346 345 349 351 351 355 357 354 355 357 357 356 356 354 352 353 356 0 1 357 357 1 359 351 352 354 345 326 325 338 338 334 334 336 336 336 334 330 321 298 292 286 265 241 217 250 290 323 331 338 342 332 327 329 328 328 328 329 330 329 330 332 331
310 311 313 317 322 326 325 321 320 323 326 328 336 339 322 319 320 318 320 323 325 330 331 331 334 335 339 342 343 345 348 351 345 345 350 349 350 353 351 348 349 351 356 357 357 357 356 353 351 351 356 355 339 335 337 330 326 328 330 329 330 330 324 317 307 297 280 255 228 197 240 305 330 334 336 334 323 323 331 332 332 332 332 332 331 331 332 331
305 307 310 316 323 324 320 320 324 327 329 317 309 308 302 300 301 303 306 309 313 316 314 317 319 324 332 331 332 336 336 337 337 337 343 345 345 348 347 344 343 345 350 354 357 356 349 350 353 351 357 346 314 313 319 318 320 326 327 325 325 323 313 307 299 282 271 258 235 226 272 314 337 340 328 324 319 323 333 336 337 336 333 331 329 329 332 333
299 300 306 314 321 321 319 323 324 316 311 307 302 299 295 292 291 295 301 299 299 303 304 305 307 312 320 322 324 325 323 327 331 329 335 340 340 342 343 340 338 339 346 350 354 354 346 344 346 341 336 324 314 314 313 311 316 324 325 319 315 312 302 293 277 266 270 269 267 279 303 318 338 348 323 322 326 328 334 339 339 336 331 328 327 330 335 335
291 291 301 310 313 310 306 309 309 303 300 301 297 294 290 291 293 294 295 291 292 297 299 298 301 305 311 315 316 315 315 317 320 323 329 334 336 337 337 337 334 332 339 346 350 353 345 339 336 333 334 331 325 324 314 307 315 323 322 310 303 298 287 278 271 273 278 269 281 314 320 317 333 346 327 327 330 328 334 339 337 336 332 329 330 332 334 333
284 288 298 301 298 297 300 303 301 296 296 293 290 290 290 294 298 297 294 290 289 294 295 295 298 302 309 312 310 310 311 309 312 318 325 329 331 333 333 334 332 329 335 341 346 348 343 337 330 327 335 336 325 323 318 311 317 323 314 295 287 283 278 279 281 281 272 268 290 319 316 316 334 339 323 326 328 326 333 337 337 336 332 330 331 332 332 331
285 288 291 290 287 292 297 296 294 293 293 288 285 288 291 296 300 299 293 289 289 292 294 295 296 301 307 307 307 307 304 305 309 315 321 324 326 328 331 332 329 327 330 335 341 344 340 336 327 323 334 340 328 327 328 321 323 323 297 278 280 280 276 276 282 277 268 280 306 317 311 319 340 331 320 326 326 327 333 335 336 334 329 328 330 330 330 330
283 283 279 276 280 287 290 290 290 290 288 286 288 290 295 303 305 298 291 288 290 291 292 293 295 299 305 304 304 304 302 306 309 312 316 318 320 325 329 328 326 323 325 332 338 338 336 334 326 322 330 340 337 335 337 330 327 318 274 266 277 281 276 271 279 281 278 295 316 314 307 320 336 325 321 327 328 330 333 333 334 332 327 328 329 329 330 329
279 275 269 269 275 277 279 282 283 283 281 283 288 291 300 309 307 298 293 290 289 288 287 291 294 298 303 305 303 300 301 306 307 308 311 312 315 323 324 322 321 318 321 329 333 334 335 330 326 324 326 333 339 340 341 336 326 308 278 272 271 275 278 274 281 290 298 309 315 308 309 324 333 324 323 330 331 330 333 336 336 332 328 329 330 330 330 328
273 270 267 270 272 271 276 279 278 276 274 276 282 290 303 310 304 297 294 290 288 286 285 289 294 298 302 302 300 298 300 303 304 305 307 308 312 319 319 318 317 314 318 326 328 332 333 326 327 326 322 329 338 340 340 339 328 304 299 287 272 271 278 285 295 305 313 313 308 308 318 329 329 324 326 330 331 332 337 342 338 331 330 331 331 331 329 328
Height
3184 3183 3183 3183 3183 3183 3183 3183 3184 3184 3184 3184 3183 3183 3182 3181 3180 3179 3178 3176 3175 3173 3172 3170 3169 3167 3165 3163 3161 3160 3158 3157 3157 3152 3144 3140 3140 3138 3136 3133 3130 3127 3124 3122 3121 3120 3119 3119 3119 3120 3121 3123 3125 3128 3130 3133 3134 3136 3138 3140 3141 3143 3145 3147 3148 3150 3151 3152 3152 3152 3153 3153 3153 3153 3153 3153 3153 3153 3153 3153 3153 3153 3153 3153 3153 3153 3153 3153
3185 3185 3185 3185 3185 3185 3185 3185 3186 3186 3186 3185 3185 3184 3183 3182 3181 3180 3179 3178 3176 3174 3173 3171 3170 3168 3166 3164 3162 3161 3159 3159 3158 3150 3144 3145 3145 3142 3139 3136 3132 3130 3127 3126 3124 3122 3121 3120 3121 3122 3124 3125 3126 3129 3131 3133 3135 3136 3138 3140 3142 3143 3145 3147 3148 3150 3151 3152 3152 3152 3152 3152 3152 3153 3153 3153 3153 3153 3153 3153 3153 3153 3153 3153 3153 3153 3153 3153
3186 3186 3186 3186 3186 3187 3187 3187 3187 3187 3187 3186 3186 3185 3184 3183 3182 3181 3180 3178 3177 3175 3173 3172 3171 3169 3166 3164 3163 3162 3160 3160 3157 3149 3148 3149 3147 3144 3142 3138 3135 3132 3129 3128 3126 3125 3123 3122 3123 3124 3126 3127 3128 3131 3132 3134 3136 3137 3139 3140 3142 3144 3146 3147 3149 3150 3151 3152 3152 3152 3152 3152 3152 3152 3152 3152 3152 3153 3153 3153 3153 3153 3153 3153 3153 3153 3153 3153
3187 3187 3187 3188 3188 3188 3188 3188 3188 3188 3187 3187 3186 3185 3185 3184 3183 3182 3180 3179 3177 3176 3174 3172 3171 3169 3167 3165 3163 3162 3161 3160 3155 3151 3152 3151 3149 3147 3144 3141 3138 3135 3132 3130 3129 3127 3126 3125 3125 3126 3128 3129 3130 3132 3134 3136 3138 3139 3141 3142 3144 3146 3147 3148 3149 3150 3151 3151 3152 3152 3152 3152 3152 3152 3152 3152 3152 3152 3152 3153 3153 3153 3153 3153 3153 3153 3153 3153
3188 3188 3189 3189 3189 3189 3189 3189 3189 3188 3188 3187 3187 3186 3185 3184 3183 3182 3181 3180 3178 3177 3175 3173 3171 3169 3167 3165 3163 3162 3161 3159 3156 3155 3155 3152 3150 3148 3146 3144 3141 3138 3136 3134 3132 3131 3129 3128 3128 3129 3130 3131 3132 3134 3136 3138 3140 3141 3143 3144 3146 3147 3148 3149 3149 3150 3150 3151 3151 3152 3152 3152 3152 3152 3152 3151 3152 3152 3152 3152 3152 3153 3153 3153 3153 3153 3153 3153
3190 3190 3190 3190 3190 3190 3190 3190 3190 3189 3189 3188 3188 3187 3186 3185 3184 3183 3181 3180 3179 3178 3176 3174 3172 3169 3167 3165 3164 3164 3162 3161 3160 3159 3156 3154 3151 3149 3148 3146 3143 3141 3140 3138 3136 3134 3132 3131 3131 3132 3132 3133 3135 3137 3138 3140 3141 3142 3143 3145 3146 3147 3148 3148 3149 3150 3150 3151 3151 3151 3152 3152 3152 3152 3152 3152 3152 3152 3152 3152 3152 3152 3153 3153 3153 3153 3153 3152
3191 3192 3192 3192 3192 3192 3191 3191 3191 3190 3190 3189 3188 3187 3186 3185 3184 3183 3182 3181 3179 3178 3177 3175 3173 3170 3168 3167 3167 3167 3165 3162 3162 3160 3157 3155 3153 3151 3149 3148 3146 3145 3144 3142 3139 3137 3136 3135 3134 3135 3135 3136 3137 3139 3140 3142 3143 3144 3145 3146 3147 3148 3149 3149 3150 3150 3151 3151 3151 3152 3152 3152 3152 3152 3152 3152 3152 3152 3152 3152 3152 3153 3153 3153 3153 3153 3153 3152
3193 3193 3193 3193 3193 3193 3192 3192 3192 3191 3191 3190 3189 3188 3187 3186 3185 3184 3183 3181 3180 3179 3177 3176 3174 3171 3169 3168 3168 3169 3166 3163 3162 3161 3159 3157 3154 3153 3151 3151 3149 3147 3146 3144 3141 3140 3140 3138 3136 3137 3138 3138 3140 3141 3142 3144 3145 3146 3146 3148 3149 3150 3150 3151 3151 3152 3152 3152 3152 3152 3152 3152 3152 3152 3152 3152 3152 3152 3152 3153 3153 3153 3153 3153 3153 3153 3153 3153
3194 3194 3194 3194 3194 3194 3194 3194 3193 3193 3192 3191 3191 3189 3188 3187 3186 3185 3184 3182 3181 3179 3178 3176 3174 3171 3169 3169 3169 3169 3167 3164 3163 3162 3160 3158 3157 3156 3155 3153 3151 3149 3148 3146 3144 3144 3142 3140 3139 3140 3140 3140 3141 3143 3144 3145 3146 3147 3148 3149 3150 3150 3151 3151 3152 3152 3152 3152 3152 3152 3152 3152 3152 3152 3152 3152 3152 3152 3153 3153 3154 3154 3154 3154 3154 3153 3153 3153
3196 3196 3196 3196 3196 3196 3195 3195 3195 3194 3194 3193 3192 3191 3190 3188 3187 3186 3185 3183 3182 3180 3178 3176 3174 3172 3171 3172 3171 3168 3167 3166 3165 3164 3162 3160 3159 3158 3157 3155 3152 3151 3149 3147 3146 3145 3144 3142 3141 3142 3142 3141 3143 3144 3145 3145 3146 3148 3149 3150 3151 3151 3152 3152 3152 3152 3152 3152 3152 3152 3152 3152 3152 3152 3152 3152 3152 3153 3153 3153 3153 3154 3153 3153 3153 3153 3152 3152
3198 3198 3198 3198 3197 3197 3197 3196 3196 3195 3194 3194 3193 3192 3190 3189 3188 3187 3185 3184 3182 3180 3179 3177 3176 3174 3174 3174 3171 3168 3168 3168 3167 3165 3164 3162 3161 3160 3158 3155 3154 3152 3150 3149 3147 3145 3145 3144 3144 3144 3143 3143 3144 3145 3146 3146 3147 3148 3150 3151 3151 3151 3152 3152 3152 3152 3152 3152 3152 3152 3152 3152 3152 3152 3152 3152 3152 3152 3152 3153 3153 3153 3152 3152 3152 3151 3151 3151
3199 3199 3199 3199 3198 3198 3198 3197 3196 3196 3195 3194 3193 3192 3191 3190 3188 3187 3186 3184 3183 3181 3180 3179 3177 3175 3175 3175 3171 3169 3170 3169 3168 3166 3165 3164 3162 3160 3158 3156 3155 3154 3152 3150 3148 3146 3146 3146 3147 3145 3144 3145 3146 3146 3146 3147 3148 3148 3150 3151 3150 3151 3152 3152 3152 3152 3152 3152 3152 3152 3151 3152 3151 3151 3151 3151 3152 3152 3152 3152 3152 3152 3151 3151 3151 3150 3150 3149
3200 3200 3200 3200 3199 3199 3198 3198 3197 3196 3196 3195 3194 3193 3192 3190 3189 3188 3186 3185 3184 3182 3181 3180 3178 3176 3176 3174 3172 3171 3171 3169 3168 3166 3166 3165 3163 3161 3159 3158 3157 3155 3153 3151 3149 3148 3147 3148 3149 3147 3146 3147 3147 3146 3147 3147 3148 3149 3150 3150 3150 3151 3151 3151 3151 3151 3151 3151 3150 3150 3150 3151 3150 3150 3150 3150 3151 3151 3151 3151 3151 3150 3150 3150 3149 3149 3149 3149
3202 3201 3201 3201 3200 3200 3199 3198 3198 3197 3196 3196 3195 3193 3192 3191 3189 3188 3187 3186 3185 3183 3181 3181 3179 3178 3177 3174 3172 3172 3171 3170 3168 3168 3167 3166 3164 3162 3161 3159 3158 3157 3155 3153 3152 3151 3150 3150 3151 3149 3148 3148 3147 3147 3148 3148 3149 3149 3150 3150 3150 3151 3151 3151 3151 3151 3151 3150 3150 3150 3150 3150 3149 3149 3149 3149 3149 3149 3149 3150 3149 3149 3149 3148 3148 3148 3148 3147
3203 3202 3202 3202 3201 3201 3200 3199 3198 3198 3197 3196 3195 3194 3193 3191 3190 3189 3188 3187 3185 3184 3182 3181 3180 3179 3177 3174 3174 3173 3172 3172 3171 3170 3168 3167 3165 3164 3162 3161 3160 3158 3156 3155 3154 3153 3152 3151 3152 3151 3149 3149 3148 3149 3149 3149 3150 3150 3150 3150 3150 3150 3151 3151 3151 3151 3151 3150 3149 3149 3149 3149 3148 3148 3147 3147 3148 3148 3148 3148 3148 3148 3147 3147 3146 3146 3146 3145
3204 3203 3203 3202 3202 3201 3201 3200 3199 3198 3197 3197 3196 3195 3193 3192 3191 3190 3189 3187 3186 3185 3183 3182 3180 3179 3178 3176 3175 3175 3174 3173 3172 3170 3169 3168 3166 3165 3163 3162 3161 3159 3158 3157 3155 3155 3154 3153 3153 3152 3151 3150 3150 3150 3150 3150 3150 3150 3151 3151 3151 3151 3151 3151 3150 3150 3150 3150 3149 3149 3148 3148 3147 3146 3146 3146 3146 3146 3146 3147 3147 3146 3146 3145 3144 3144 3144 3144
3204 3204 3204 3203 3203 3202 3201 3200 3199 3198 3197 3197 3196 3195 3194 3193 3192 3190 3189 3188 3186 3185 3184 3182 3181 3180 3178 3177 3177 3175 3174 3173 3172 3171 3170 3168 3167 3166 3164 3163 3162 3160 3159 3158 3156 3155 3155 3155 3154 3153 3152 3152 3151 3151 3151 3151 3152 3152 3152 3151 3151 3151 3151 3151 3151 3150 3150 3150 3149 3148 3148 3147 3146 3145 3144 3144 3144 3145 3145 3145 3145 3145 3144 3143 3143 3142 3142 3142
3205 3205 3204 3203 3203 3202 3201 3200 3199 3198 3197 3196 3195 3195 3194 3192 3191 3190 3189 3188 3187 3186 3185 3183 3182 3180 3179 3178 3177 3176 3175 3174 3173 3171 3170 3169 3168 3167 3165 3164 3163 3161 3159 3159 3158 3157 3157 3156 3155 3154 3153 3152 3152 3152 3152 3153 3153 3153 3153 3153 3153 3152 3152 3152 3151 3150 3150 3150 3149 3148 3147 3147 3145 3144 3143 3143 3143 3144 3144 3145 3145 3144 3143 3142 3141 3141 3140 3140
3205 3205 3204 3203 3203 3202 3201 3200 3199 3198 3197 3196 3195 3195 3194 3192 3191 3191 3189 3189 3188 3187 3185 3184 3182 3180 3180 3179 3178 3177 3176 3175 3173 3172 3171 3170 3169 3167 3166 3165 3163 3162 3162 3161 3159 3158 3157 3157 3156 3154 3153 3153 3153 3153 3153 3154 3154 3154 3154 3153 3153 3153 3153 3152 3151 3150 3150 3149 3149 3148 3147 3146 3144 3143 3142 3142 3143 3144 3144 3144 3144 3143 3142 3141 3141 3140 3139 3139
3205 3205 3204 3203 3203 3202 3201 3200 3199 3198 3197 3196 3195 3195 3194 3193 3192 3191 3191 3190 3189 3186 3185 3185 3183 3182 3181 3180 3179 3178 3177 3176 3175 3173 3172 3170 3169 3168 3167 3166 3165 3164 3163 3161 3159 3159 3158 3157 3156 3155 3155 3155 3155 3154 3155 3155 3155 3154 3154 3154 3154 3153 3153 3151 3151 3150 3149 3149 3149 3148 3147 3145 3144 3143 3142 3142 3143 3144 3144 3144 3144 3143 3142 3141 3141 3140 3139 3138
3205 3205 3204 3203 3202 3202 3201 3200 3199 3198 3197 3196 3195 3195 3194 3193 3193 3192 3191 3190 3189 3188 3187 3186 3185 3184 3183 3182 3181 3179 3178 3177 3176 3174 3172 3171 3170 3169 3168 3167 3166 3164 3162 3161 3160 3160 3159 3156 3156 3158 3157 3157 3156 3156 3156 3155 3155 3155 3154 3154 3153 3152 3151 3150 3150 3149 3148 3148 3149 3148 3147 3146 3145 3144 3143 3143 3143 3144 3144 3144 3144 3143 3142 3141 3140 3140 3139 3138
3205 3204 3204 3203 3202 3202 3201 3200 3199 3198 3197 3196 3195 3195 3194 3194 3193 3192 3192 3191 3190 3189 3188 3187 3186 3185 3184 3183 3182 3181 3180 3179 3177 3175 3173 3172 3171 3169 3168 3167 3165 3163 3162 3162 3161 3161 3158 3157 3159 3160 3158 3158 3157 3157 3156 3155 3155 3154 3153 3152 3151 3150 3150 3149 3149 3149 3147 3148 3148 3148 3147 3146 3145 3145 3144 3143 3143 3144 3144 3144 3144 3143 3143 3141 3140 3139 3138 3136
3205 3204 3204 3203 3202 3202 3201 3200 3199 3198 3198 3196 3195 3195 3194 3193 3193 3192 3192 3192 3191 3190 3189 3188 3188 3186 3185 3184 3183 3182 3181 3179 3177 3176 3174 3173 3171 3170 3169 3167 3166 3165 3164 3162 3162 3160 3158 3160 3161 3161 3160 3160 3159 3158 3158 3156 3155 3154 3153 3152 3150 3150 3149 3149 3148 3148 3147 3147 3147 3147 3146 3146 3146 3145 3144 3144 3143 3143 3144 3144 3144 3143 3142 3141 3139 3138 3136 3135
3205 3204 3203 3203 3202 3201 3201 3200 3199 3198 3197 3196 3196 3195 3194 3193 3193 3192 3192 3192 3191 3191 3190 3189 3188 3187 3186 3185 3183 3182 3181 3179 3178 3176 3175 3174 3172 3170 3169 3168 3166 3165 3163 3162 3162 3161 3160 3162 3163 3162 3162 3161 3160 3160 3158 3156 3155 3154 3153 3152 3151 3150 3149 3148 3147 3147 3146 3146 3147 3146 3146 3146 3146 3146 3145 3144 3144 3144 3144 3144 3144 3143 3141 3140 3138 3137 3135 3134
3205 3204 3203 3203 3202 3201 3200 3200 3199 3198 3197 3197 3196 3195 3194 3193 3193 3192 3192 3192 3191 3191 3190 3190 3189 3188 3187 3185 3184 3182 3181 3180 3179 3177 3175 3174 3173 3171 3169 3168 3167 3165 3163 3163 3164 3162 3162 3164 3164 3164 3163 3162 3161 3159 3157 3156 3155 3154 3153 3152 3151 3150 3149 3148 3147 3147 3146 3146 3147 3146 3146 3148 3148 3147 3146 3146 3146 3145 3145 3144 3143 3142 3140 3139 3137 3135 3134 3133
3205 3204 3203 3203 3202 3201 3200 3199 3199 3198 3198 3197 3196 3195 3195 3194 3193 3192 3192 3191 3191 3192 3191 3190 3189 3188 3187 3186 3184 3183 3181 3180 3179 3177 3177 3175 3173 3172 3170 3169 3168 3166 3166 3165 3165 3164 3164 3165 3165 3164 3163 3162 3160 3158 3157 3156 3154 3153 3153 3152 3150 3149 3148 3148 3147 3147 3146 3146 3147 3146 3146 3149 3149 3147 3147 3147 3146 3146 3145 3144 3142 3141 3139 3137 3136 3134 3132 3131
3205 3204 3203 3203 3202 3201 3200 3200 3199 3198 3198 3197 3196 3196 3195 3194 3193 3193 3192 3191 3192 3192 3192 3191 3190 3189 3188 3186 3185 3183 3182 3181 3180 3179 3178 3176 3174 3173 3172 3171 3169 3168 3167 3166 3166 3166 3166 3166 3165 3164 3162 3161 3159 3157 3156 3155 3154 3153 3152 3151 3150 3149 3148 3147 3147 3147 3146 3146 3147 3146 3146 3148 3148 3148 3147 3147 3146 3146 3144 3143 3141 3140 3138 3136 3134 3133 3131 3130
3204 3204 3203 3203 3202 3201 3201 3200 3199 3198 3198 3197 3196 3195 3195 3194 3193 3192 3191 3193 3195 3194 3193 3192 3191 3190 3189 3187 3186 3184 3184 3183 3182 3180 3178 3176 3175 3174 3173 3172 3170 3169 3168 3167 3167 3167 3167 3166 3165 3164 3162 3160 3158 3157 3157 3156 3155 3154 3153 3151 3149 3148 3147 3147 3147 3147 3146 3146 3147 3147 3147 3147 3148 3147 3147 3146 3146 3145 3143 3141 3140 3138 3137 3135 3133 3132 3130 3129
3204 3204 3203 3203 3202 3201 3201 3200 3199 3198 3198 3197 3196 3195 3194 3193 3193 3192 3191 3194 3197 3195 3194 3193 3192 3191 3189 3188 3187 3186 3184 3183 3181 3179 3178 3177 3176 3175 3173 3172 3171 3170 3169 3168 3167 3167 3167 3166 3165 3164 3163 3161 3160 3160 3159 3157 3156 3155 3152 3150 3148 3147 3147 3147 3147 3147 3146 3146 3147 3148 3147 3147 3147 3146 3146 3146 3145 3143 3142 3140 3139 3137 3136 3134 3132 3131 3129 3128
3204 3204 3203 3203 3202 3202 3201 3200 3199 3199 3198 3197 3196 3195 3194 3193 3192 3191 3192 3195 3196 3195 3195 3194 3192 3191 3190 3189 3188 3187 3185 3183 3181 3180 3179 3178 3177 3176 3175 3173 3172 3171 3170 3169 3168 3168 3168 3167 3167 3166 3164 3163 3162 3161 3160 3159 3157 3155 3152 3149 3147 3147 3147 3147 3147 3146 3146 3147 3147 3148 3147 3147 3146 3145 3144 3144 3143 3142 3141 3140 3139 3137 3136 3134 3132 3130 3128 3126
3205 3204 3204 3203 3202 3202 3201 3200 3199 3199 3198 3197 3196 3195 3194 3193 3192 3191 3194 3196 3196 3195 3195 3194 3193 3192 3191 3190 3189 3187 3186 3185 3184 3183 3181 3180 3179 3178 3176 3173 3172 3171 3170 3169 3168 3168 3169 3169 3168 3166 3165 3164 3163 3162 3161 3160 3158 3156 3154 3150 3147 3147 3147 3147 3147 3146 3147 3148 3148 3147 3146 3145 3145 3144 3143 3143 3142 3141 3140 3139 3138 3136 3135 3133 3131 3129 3127 3125
3205 3204 3204 3203 3202 3202 3201 3200 3199 3199 3198 3197 3196 3195 3194 3193 3193 3193 3195 3196 3195 3195 3195 3194 3193 3192 3191 3190 3189 3187 3186 3184 3183 3182 3180 3179 3178 3175 3173 3172 3171 3171 3170 3170 3169 3169 3170 3169 3168 3166 3165 3164 3163 3162 3161 3160 3159 3157 3154 3150 3148 3148 3148 3148 3149 3149 3149 3148 3147 3146 3145 3144 3143 3143 3142 3142 3141 3140 3140 3138 3137 3135 3134 3132 3130 3128 3126 3124
3205 3204 3204 3203 3202 3202 3201 3200 3199 3199 3198 3197 3196 3195 3194 3194 3194 3195 3196 3195 3195 3195 3195 3194 3193 3192 3191 3190 3189 3188 3186 3185 3184 3182 3181 3180 3178 3175 3174 3173 3173 3172 3172 3171 3171 3170 3169 3169 3168 3167 3166 3165 3164 3163 3161 3160 3159 3156 3153 3151 3149 3150 3151 3152 3153 3153 3150 3148 3147 3146 3145 3143 3142 3142 3141 3141 3140 3140 3139 3137 3136 3134 3132 3130 3128 3126 3124 3122
3205 3204 3204 3203 3202 3202 3201 3200 3199 3198 3198 3197 3196 3195 3194 3194 3195 3196 3196 3195 3195 3195 3195 3194 3193 3193 3192 3191 3190 3189 3187 3186 3184 3183 3182 3182 3180 3178 3176 3175 3174 3174 3173 3172 3171 3170 3170 3169 3168 3167 3166 3165 3164 3163 3162 3161 3159 3157 3155 3154 3153 3153 3154 3155 3155 3154 3152 3149 3146 3145 3144 3142 3142 3141 3141 3140 3140 3139 3138 3136 3135 3132 3130 3128 3126 3124 3122 3120
3205 3204 3204 3203 3202 3202 3201 3200 3199 3198 3198 3197 3196 3195 3194 3195 3195 3195 3195 3195 3195 3195 3195 3194 3194 3193 3192 3191 3190 3189 3188 3186 3185 3184 3183 3182 3180 3178 3176 3175 3174 3174 3173 3172 3171 3171 3170 3170 3169 3168 3167 3166 3164 3164 3163 3161 3160 3159 3157 3156 3156 3156 3156 3156 3156 3155 3153 3151 3147 3145 3143 3142 3141 3141 3140 3140 3139 3138 3137 3135 3133 3131 3129 3128 3125 3122 3120 3117
3204 3204 3203 3203 3202 3201 3200 3199 3199 3198 3197 3196 3196 3195 3194 3195 3195 3195 3195 3195 3195 3194 3194 3194 3193 3193 3192 3191 3191 3189 3188 3187 3186 3184 3183 3182 3180 3179 3178 3176 3175 3174 3173 3172 3172 3172 3171 3170 3169 3169 3168 3166 3165 3164 3163 3162 3161 3160 3158 3158 3158 3157 3157 3156 3155 3154 3154 3152 3147 3144 3143 3141 3141 3140 3139 3139 3138 3137 3136 3134 3133 3130 3128 3126 3123 3121 3118 3115
3204 3203 3203 3202 3202 3201 3200 3199 3198 3197 3197 3196 3195 3195 3195 3194 3194 3194 3195 3195 3194 3194 3194 3193 3193 3193 3192 3191 3191 3189 3188 3187 3186 3185 3184 3182 3181 3180 3179 3178 3176 3175 3174 3174 3173 3172 3171 3170 3169 3169 3167 3166 3165 3164 3164 3163 3162 3160 3159 3159 3158 3157 3157 3156 3155 3155 3155 3152 3147 3144 3142 3141 3140 3140 3139 3138 3137 3136 3135 3134 3132 3130 3128 3125 3122 3119 3116 3114
3203 3203 3202 3202 3201 3200 3199 3198 3198 3197 3196 3196 3195 3195 3194 3194 3194 3194 3194 3194 3194 3194 3194 3193 3193 3193 3192 3191 3190 3189 3189 3188 3187 3185 3184 3183 3182 3182 3180 3179 3178 3177 3175 3175 3174 3173 3172 3170 3169 3168 3167 3166 3165 3164 3164 3163 3162 3161 3161 3160 3159 3159 3158 3156 3156 3156 3156 3153 3148 3144 3142 3141 3140 3140 3139 3138 3137 3135 3134 3133 3131 3129 3126 3123 3120 3117 3114 3112
3202 3202 3201 3201 3200 3199 3198 3197 3197 3196 3195 3195 3194 3194 3194 3194 3194 3194 3194 3194 3194 3194 3194 3193 3193 3193 3192 3191 3190 3190 3189 3188 3187 3186 3185 3184 3184 3183 3181 3180 3179 3178 3177 3176 3175 3174 3173 3172 3170 3169 3167 3166 3165 3164 3164 3163 3162 3162 3161 3161 3160 3160 3158 3157 3156 3157 3156 3155 3150 3145 3142 3140 3140 3139 3138 3138 3136 3135 3133 3131 3129 3127 3124 3121 3117 3115 3112 3109
3201 3201 3200 3200 3199 3198 3197 3197 3196 3195 3195 3194 3194 3194 3194 3193 3193 3194 3194 3194 3194 3193 3193 3193 3193 3192 3192 3191 3191 3190 3189 3189 3188 3187 3186 3186 3185 3184 3182 3181 3180 3179 3178 3177 3175 3174 3173 3172 3171 3169 3167 3166 3165 3164 3164 3163 3162 3161 3160 3160 3160 3160 3158 3156 3156 3156 3156 3155 3154 3151 3144 3139 3138 3138 3137 3136 3135 3133 3131 3129 3127 3124 3122 3119 3116 3113 3110 3107
3200 3199 3199 3198 3198 3197 3196 3196 3195 3194 3194 3194 3193 3193 3193 3193 3193 3193 3193 3193 3193 3193 3193 3193 3192 3192 3192 3191 3191 3190 3190 3189 3189 3188 3187 3187 3186 3185 3183 3182 3181 3180 3179 3177 3176 3175 3173 3172 3171 3169 3167 3166 3165 3164 3164 3163 3162 3161 3160 3159 3159 3159 3158 3157 3156 3155 3155 3155 3154 3153 3147 3138 3137 3137 3136 3134 3133 3131 3129 3127 3124 3122 3120 3117 3114 3111 3108 3106
3199 3198 3197 3197 3196 3196 3195 3195 3194 3194 3193 3193 3193 3192 3192 3192 3192 3192 3192 3192 3192 3192 3192 3192 3192 3192 3191 3191 3191 3190 3189 3189 3189 3188 3187 3186 3186 3185 3183 3182 3181 3180 3179 3177 3176 3175 3174 3173 3171 3169 3168 3166 3165 3164 3164 3163 3162 3161 3160 3159 3159 3158 3157 3157 3156 3155 3155 3154 3152 3153 3148 3138 3135 3136 3134 3133 3132 3130 3128 3125 3122 3120 3118 3115 3112 3109 3106 3103
3198 3197 3196 3196 3195 3195 3194 3194 3193 3193 3193 3192 3192 3192 3192 3192 3192 3191 3191 3191 3191 3191 3191 3191 3191 3190 3190 3190 3189 3189 3188 3188 3188 3187 3186 3185 3185 3184 3183 3181 3180 3179 3178 3177 3176 3174 3173 3173 3172 3170 3168 3166 3165 3164 3163 3162 3161 3160 3159 3158 3158 3157 3156 3155 3155 3154 3153 3151 3150 3152 3147 3138 3134 3134 3133 3132 3130 3129 3127 3124 3121 3118 3115 3112 3109 3106 3104 3101
3196 3196 3195 3195 3194 3194 3193 3193 3192 3192 3192 3192 3192 3191 3191 3191 3191 3191 3190 3190 3190 3190 3190 3189 3189 3189 3189 3188 3188 3187 3187 3187 3186 3186 3185 3184 3184 3183 3182 3181 3180 3178 3177 3177 3176 3174 3173 3173 3171 3169 3167 3166 3165 3164 3163 3161 3160 3159 3158 3157 3156 3155 3154 3153 3152 3152 3152 3149 3148 3149 3144 3136 3135 3134 3131 3131 3129 3127 3126 3123 3120 3116 3113 3110 3107 3104 3102 3099
3195 3194 3194 3194 3193 3193 3192 3192 3192 3191 3191 3191 3191 3191 3190 3190 3190 3190 3190 3189 3189 3189 3188 3188 3188 3188 3187 3187 3186 3186 3185 3185 3185 3184 3184 3183 3182 3182 3181 3180 3179 3178 3177 3176 3175 3174 3173 3172 3171 3169 3169 3168 3166 3164 3163 3161 3159 3158 3156 3155 3154 3153 3153 3152 3151 3151 3150 3147 3146 3145 3139 3134 3135 3133 3131 3130 3127 3125 3123 3121 3117 3114 3111 3107 3105 3102 3100 3096
3193 3193 3193 3192 3192 3192 3191 3191 3191 3191 3191 3191 3190 3190 3190 3189 3189 3189 3189 3188 3188 3188 3187 3187 3187 3186 3186 3186 3185 3185 3184 3184 3183 3183 3182 3182 3181 3180 3180 3179 3178 3177 3176 3175 3174 3173 3172 3170 3170 3169 3169 3169 3167 3165 3162 3160 3158 3156 3155 3154 3153 3152 3151 3150 3149 3148 3147 3145 3142 3139 3135 3132 3132 3131 3130 3128 3125 3122 3120 3117 3114 3111 3108 3105 3103 3099 3096 3093
3191 3191 3191 3191 3191 3191 3190 3190 3190 3190 3190 3190 3189 3189 3189 3189 3188 3188 3188 3188 3187 3187 3186 3186 3186 3185 3185 3185 3184 3184 3183 3183 3182 3182 3181 3181 3180 3179 3178 3177 3177 3176 3175 3174 3174 3173 3171 3169 3169 3168 3167 3167 3165 3163 3161 3159 3156 3155 3153 3152 3152 3150 3149 3147 3146 3145 3145 3143 3139 3136 3134 3131 3129 3128 3127 3125 3122 3120 3117 3114 3111 3108 3105 3102 3099 3096 3094 3091
3190 3190 3190 3190 3190 3189 3189 3189 3189 3189 3189 3189 3188 3188 3188 3188 3188 3187 3187 3187 3187 3186 3186 3185 3185 3185 3185 3184 3184 3183 3183 3182 3181 3181 3180 3180 3179 3178 3177 3176 3175 3174 3173 3173 3172 3172 3170 3169 3167 3166 3166 3165 3163 3161 3159 3157 3155 3153 3152 3151 3150 3148 3147 3145 3144 3143 3142 3140 3136 3134 3133 3130 3127 3126 3125 3123 3120 3117 3114 3111 3108 3105 3102 3099 3096 3094 3092 3089
3188 3188 3188 3188 3188 3188 3188 3188 3188 3187 3187 3187 3187 3187 3187 3187 3187 3187 3187 3186 3186 3186 3185 3185 3185 3184 3184 3184 3183 3183 3182 3181 3181 3180 3179 3178 3178 3177 3176 3175 3174 3173 3172 3171 3171 3170 3169 3168 3166 3164 3164 3163 3162 3160 3157 3154 3153 3151 3150 3150 3148 3146 3145 3144 3142 3141 3139 3136 3134 3133 3131 3129 3127 3124 3122 3121 3118 3115 3112 3109 3106 3103 3100 3097 3094 3092 3089 3086
3186 3186 3186 3187 3187 3187 3186 3186 3186 3186 3186 3186 3186 3186 3187 3186 3186 3186 3186 3186 3185 3185 3185 3184 3184 3184 3183 3183 3182 3182 3181 3181 3180 3179 3178 3177 3176 3176 3175 3174 3173 3171 3170 3170 3169 3168 3168 3166 3164 3162 3161 3161 3160 3158 3155 3152 3150 3149 3149 3149 3147 3145 3143 3142 3140 3139 3137 3134 3133 3132 3129 3127 3126 3124 3120 3118 3116 3112 3110 3107 3104 3101 3098 3094 3092 3089 3085 3082
3184 3184 3185 3185 3185 3185 3185 3185 3185 3185 3185 3185 3185 3185 3186 3186 3186 3185 3185 3185 3184 3184 3184 3183 3183 3183 3182 3182 3182 3181 3180 3180 3179 3178 3177 3176 3175 3175 3174 3172 3171 3170 3169 3169 3168 3167 3166 3165 3163 3161 3159 3157 3157 3155 3153 3150 3148 3147 3148 3147 3146 3144 3142 3140 3139 3137 3135 3133 3131 3130 3127 3124 3123 3121 3118 3116 3113 3111 3108 3105 3101 3098 3095 3092 3089 3085 3082 3079
3182 3182 3183 3183 3183 3184 3184 3184 3184 3184 3184 3184 3184 3184 3184 3184 3184 3184 3184 3183 3183 3183 3182 3182 3181 3181 3181 3181 3180 3180 3179 3179 3178 3177 3176 3175 3174 3173 3172 3171 3170 3169 3168 3168 3167 3165 3164 3163 3161 3160 3157 3154 3154 3152 3150 3148 3147 3146 3146 3146 3144 3142 3140 3138 3137 3135 3133 3131 3129 3127 3125 3123 3121 3119 3116 3113 3111 3108 3106 3103 3098 3095 3092 3089 3086 3083 3080 3077